GW0701 Weather Reports


time (UTC)temp
F
wind
direction
speed
knots
gust
knots
rain 1hr
in
rain 24hr
in
rain mn
in
humidity
%
barometer
mb
20260906150456 74 138 4.3 6.1 0.00 0.00 0.00 91 1018.2
20260906145956 74 66 2.6 2.6 0.00 0.00 0.00 91 1018.5
20260906145455 74 78 6.1 7.0 0.00 0.00 0.00 91 1018.2
20260906144950 74 78 2.6 4.3 0.00 0.00 0.00 93 1018.2
20260906144444 74 74 1.7 1.7 0.00 0.00 0.00 93 1018.3
20260906143940 73 63 0.9 1.7 0.00 0.00 0.00 94 1018.1
20260906143435 73 90 1.7 1.7 0.00 0.00 0.00 94 1018.0
20260906142931 73 70 2.6 5.2 0.00 0.00 0.00 94 1018.1
20260906142430 73 86 2.6 4.3 0.00 0.00 0.00 94 1017.9
20260906141926 73 100 5.2 7.0 0.00 0.00 0.00 94 1017.9
20260906141420 73 60 1.7 2.6 0.00 0.00 0.00 94 1017.8
20260906140914 73 105 4.3 5.2 0.00 0.00 0.00 94 1017.8
20260906140408 73 63 0.9 1.7 0.00 0.00 0.00 95 1018.0
20260906135906 73 56 2.6 2.6 0.00 0.00 0.00 95 1017.8
20260906135400 73 72 1.7 2.6 0.00 0.00 0.00 95 1017.8
20260906134856 73 77 2.6 4.3 0.00 0.00 0.00 96 1017.6
20260906134351 72 72 2.6 4.3 0.00 0.00 0.00 96 1017.3
20260906133847 72 76 1.7 1.7 0.00 0.00 0.00 97 1017.5
20260906133342 72 83 0.9 0.9 0.00 0.00 0.00 97 1017.7
20260906132838 72 111 2.6 4.3 0.00 0.00 0.00 97 1017.6
20260906132332 72 95 2.6 4.3 0.00 0.00 0.00 97 1017.5
20260906131828 72 59 1.7 2.6 0.00 0.00 0.00 97 1017.5
20260906131323 72 319 2.6 5.2 0.00 0.00 0.00 97 1017.5
20260906130819 73 19 1.7 2.6 0.00 0.00 0.00 97 1017.4
20260906130318 73 126 3.5 6.1 0.00 0.00 0.00 97 1017.3
20260906125818 73 139 4.3 5.2 0.00 0.00 0.00 98 1017.2
20260906125315 73 70 4.3 6.1 0.00 0.00 0.00 98 1017.2
20260906124810 73 57 1.7 1.7 0.00 0.00 0.00 98 1017.3
20260906124306 73 45 0.9 1.7 0.00 0.00 0.00 98 1017.2
20260906123805 73 83 2.6 2.6 0.00 0.00 0.00 98 1017.2
20260906123300 72 89 0.0 0.0 0.00 0.00 0.00 99 1017.3
20260906122800 72 131 0.9 0.9 0.00 0.00 0.00 99 1017.1
20260906122255 72 72 0.9 1.7 0.00 0.00 0.00 99 1017.0
20260906121752 72 72 0.9 1.7 0.00 0.00 0.00 99 1017.1
20260906121248 72 86 0.9 1.7 0.00 0.00 0.00 99 1017.1
20260906120743 72 80 2.6 2.6 0.00 0.00 0.00 99 1017.0
20260906120240 72 98 2.6 2.6 0.00 0.00 0.00 99 1016.8
20260906115735 72 112 1.7 1.7 0.00 0.00 0.00 99 1017.1
20260906115230 72 64 0.9 0.9 0.00 0.00 0.00 99 1017.0
20260906114729 72 69 0.9 0.9 0.00 0.00 0.00 99 1016.8
20260906114224 72 76 2.6 4.3 0.00 0.00 0.00 99 1016.7
20260906113720 72 81 0.9 0.9 0.00 0.00 0.00 99 1016.8
20260906113219 72 88 1.7 1.7 0.00 0.00 0.00 99 1017.0
20260906112719 72 113 0.9 0.9 0.00 0.00 0.00 99 1017.0
20260906112216 73 44 0.9 0.9 0.00 0.00 0.00 99 1016.7
20260906111715 73 56 0.0 0.9 0.00 0.00 0.00 99 1016.8
20260906111210 73 81 0.0 0.9 0.00 0.00 0.00 99 1016.7
20260906110705 73 45 1.7 1.7 0.00 0.00 0.00 99 1016.7
20260906110200 73 46 0.9 0.9 0.00 0.00 0.00 99 1016.6
20260906105654 73 30 0.0 0.9 0.00 0.00 0.00 99 1016.6
20260906105150 73 47 0.9 0.9 0.00 0.00 0.00 99 1016.6
20260906104649 73 341 0.0 0.0 0.00 0.00 0.00 99 1016.5
20260906104143 73 62 0.9 1.7 0.00 0.00 0.00 99 1016.2
20260906103641 73 17 1.7 2.6 0.00 0.00 0.00 99 1016.3
20260906103137 73 353 0.0 0.9 0.00 0.00 0.00 99 1016.3
20260906102631 73 67 0.0 0.9 0.00 0.00 0.00 99 1016.5
20260906102125 72 86 0.0 0.0 0.00 0.00 0.00 99 1016.3
20260906101620 72 110 0.0 0.9 0.00 0.00 0.00 99 1015.8
20260906101115 72 109 0.0 0.9 0.00 0.00 0.00 99 1015.9
20260906100611 72 153 0.9 0.9 0.00 0.00 0.00 99 1016.1
20260906100111 72 85 0.9 1.7 0.00 0.00 0.00 99 1016.0
20260906095610 73 69 0.0 0.9 0.00 0.00 0.00 99 1016.0
20260906095106 73 104 1.7 1.7 0.00 0.00 0.00 99 1016.1
20260906094604 72 72 0.9 0.9 0.00 0.00 0.00 99 1016.0
20260906094101 72 116 1.7 1.7 0.00 0.00 0.00 99 1016.0
20260906093556 72 83 0.0 0.9 0.00 0.00 0.00 99 1015.9
20260906093051 72 86 0.0 0.9 0.00 0.00 0.00 99 1015.8
20260906092546 73 82 0.9 0.9 0.00 0.00 0.00 99 1015.9
20260906092041 73 144 0.9 0.9 0.00 0.00 0.00 99 1016.0
20260906091537 73 91 1.7 1.7 0.00 0.00 0.00 99 1015.5
20260906091033 73 84 1.7 1.7 0.00 0.00 0.00 99 1015.8
20260906090528 73 92 0.0 0.0 0.00 0.00 0.00 99 1015.6
20260906090023 73 108 0.9 1.7 0.00 0.00 0.00 99 1015.4
20260906085521 73 55 0.9 0.9 0.00 0.00 0.00 99 1015.3
20260906085021 73 85 1.7 1.7 0.00 0.00 0.00 99 1015.2
20260906084516 73 66 1.7 2.6 0.00 0.00 0.00 99 1015.3
20260906084015 73 86 0.0 0.0 0.00 0.00 0.00 99 1015.4
20260906083511 73 86 0.9 1.7 0.00 0.00 0.00 98 1015.4
20260906083010 73 80 1.7 1.7 0.00 0.00 0.00 98 1015.4
20260906082505 73 66 0.9 1.7 0.00 0.00 0.00 98 1015.4
20260906082001 73 67 0.9 0.9 0.00 0.00 0.00 99 1015.7
20260906081456 73 58 0.9 0.9 0.00 0.00 0.00 98 1015.5
20260906080952 73 76 2.6 2.6 0.00 0.00 0.00 99 1015.4
20260906080448 74 88 1.7 1.7 0.00 0.00 0.00 98 1015.4
20260906075943 74 86 1.7 2.6 0.00 0.00 0.00 98 1015.5
20260906075437 74 84 0.9 1.7 0.00 0.00 0.00 98 1015.7
20260906074932 74 69 0.9 1.7 0.00 0.00 0.00 98 1015.4
20260906074427 74 89 2.6 2.6 0.00 0.00 0.00 98 1015.7
20260906073926 74 100 1.7 2.6 0.00 0.00 0.00 98 1015.6
20260906073421 74 75 0.9 0.9 0.00 0.00 0.00 98 1015.5
20260906072917 74 55 0.9 0.9 0.00 0.00 0.00 98 1015.7
20260906072412 74 70 0.9 0.9 0.00 0.00 0.00 98 1015.5
20260906071908 74 58 0.9 0.9 0.00 0.00 0.00 98 1015.7
20260906071404 75 90 0.9 1.7 0.00 0.00 0.00 98 1015.7
20260906070859 75 77 0.9 0.9 0.00 0.00 0.00 97 1015.6
20260906070355 75 91 2.6 4.3 0.00 0.00 0.00 97 1015.6
20260906065851 75 72 0.9 2.6 0.00 0.00 0.00 97 1015.5
20260906065344 75 81 0.0 0.9 0.00 0.00 0.00 97 1015.9
20260906064840 75 55 0.9 1.7 0.00 0.00 0.00 97 1015.8
20260906064337 75 52 0.9 1.7 0.00 0.00 0.00 97 1015.9
20260906063836 75 66 0.0 0.9 0.00 0.00 0.00 97 1015.7
20260906063332 76 65 0.9 1.7 0.00 0.00 0.00 96 1015.8
20260906062827 76 63 0.9 0.9 0.00 0.00 0.00 96 1015.8
20260906062326 76 87 1.7 2.6 0.00 0.00 0.00 96 1015.7
20260906061822 76 77 2.6 4.3 0.00 0.00 0.00 96 1015.6
20260906061318 76 76 0.0 0.0 0.00 0.00 0.00 96 1015.7
20260906060813 76 89 0.9 1.7 0.00 0.00 0.00 96 1015.6
20260906060311 76 83 1.7 1.7 0.00 0.00 0.00 96 1015.3
20260906055807 76 57 1.7 1.7 0.00 0.00 0.00 96 1015.4
20260906055306 77 65 0.9 0.9 0.00 0.00 0.00 96 1015.6
20260906054756 77 49 0.9 1.7 0.00 0.00 0.00 96 1015.5
20260906054252 77 43 0.9 0.9 0.00 0.00 0.00 96 1015.7
20260906053748 77 42 2.6 2.6 0.00 0.00 0.00 96 1015.3
20260906053244 77 66 0.9 1.7 0.00 0.00 0.00 96 1015.2
20260906052739 77 36 1.7 1.7 0.00 0.00 0.00 96 1015.3
20260906052235 77 341 1.7 1.7 0.00 0.00 0.00 96 1015.3
20260906051732 77 44 1.7 2.6 0.00 0.00 0.00 96 1015.3
20260906051231 78 52 1.7 1.7 0.00 0.00 0.00 96 1015.2
20260906050727 78 94 2.6 2.6 0.00 0.00 0.00 95 1015.3
20260906050222 78 63 1.7 1.7 0.00 0.00 0.00 95 1015.2
20260906045720 78 70 2.6 2.6 0.00 0.00 0.00 95 1015.1
20260906045215 78 93 0.9 1.7 0.00 0.00 0.00 95 1015.2
20260906044711 78 25 0.9 0.9 0.00 0.00 0.00 95 1015.1
20260906044206 79 38 0.0 0.9 0.00 0.00 0.00 94 1015.0
20260906043702 79 101 0.9 0.9 0.00 0.00 0.00 94 1015.0
20260906043158 79 44 2.6 2.6 0.00 0.00 0.00 94 1015.0
20260906042657 79 71 2.6 2.6 0.00 0.00 0.00 93 1014.8
20260906042151 79 63 0.9 0.9 0.00 0.00 0.00 93 1014.9
20260906041647 80 60 0.9 1.7 0.00 0.00 0.00 93 1014.8
20260906041142 80 26 0.9 1.7 0.00 0.00 0.00 92 1014.8
20260906040637 80 57 2.6 2.6 0.00 0.00 0.00 92 1014.8
20260906040133 80 69 1.7 2.6 0.00 0.00 0.00 92 1014.7
20260906035628 80 71 1.7 1.7 0.00 0.00 0.00 92 1014.8
20260906035123 80 50 1.7 1.7 0.00 0.00 0.00 92 1014.6
20260906034618 80 68 1.7 1.7 0.00 0.00 0.00 93 1014.4
20260906034113 81 49 1.7 2.6 0.00 0.00 0.00 93 1014.2
20260906033609 81 49 1.7 2.6 0.00 0.00 0.00 93 1014.2
20260906033103 81 36 2.6 4.3 0.00 0.00 0.00 92 1014.3
20260906032600 81 29 0.9 1.7 0.00 0.00 0.00 92 1014.3
20260906032100 81 29 0.9 1.7 0.00 0.00 0.00 92 1014.3
20260906031555 81 79 0.9 0.9 0.00 0.00 0.00 93 1014.3
20260906031050 82 6 0.9 1.7 0.00 0.00 0.00 92 1014.2
20260906030550 82 44 1.7 1.7 0.00 0.00 0.00 92 1014.5
20260906030049 82 44 1.7 1.7 0.00 0.00 0.00 92 1013.9
20260906025544 81 44 1.7 2.6 0.00 0.00 0.00 93 1014.0
20260906025042 81 34 0.9 1.7 0.00 0.00 0.00 94 1014.1
20260906024537 81 327 1.7 1.7 0.00 0.00 0.00 94 1013.9
20260906024031 81 273 0.0 0.0 0.00 0.00 0.00 94 1014.0
20260906023528 81 285 0.0 0.0 0.00 0.00 0.00 93 1013.8
20260906023022 82 295 0.0 0.0 0.00 0.00 0.00 93 1013.7
20260906022518 82 255 0.0 0.0 0.00 0.00 0.00 92 1013.5
20260906022013 83 256 0.0 0.0 0.00 0.00 0.00 90 1013.5
20260906021508 83 214 0.0 0.0 0.00 0.00 0.00 90 1013.6
20260906021003 83 179 0.0 0.9 0.00 0.00 0.00 90 1013.5
20260906020501 83 65 0.9 0.9 0.00 0.00 0.00 90 1013.5
20260906020001 82 42 0.9 0.9 0.00 0.00 0.00 90 1013.3
20260906015501 82 57 0.9 0.9 0.00 0.00 0.00 91 1013.5
20260906015001 82 293 0.0 0.9 0.00 0.00 0.00 92 1013.3
20260906014455 82 48 0.0 0.0 0.00 0.00 0.00 91 1013.4
20260906013951 82 287 0.9 0.9 0.00 0.00 0.00 90 1013.4
20260906013447 83 288 0.9 0.9 0.00 0.00 0.00 90 1013.3
20260906012942 83 300 0.9 0.9 0.00 0.00 0.00 89 1013.3
20260906012437 83 290 0.0 0.9 0.00 0.00 0.00 89 1013.2
20260906011936 83 272 0.0 0.9 0.00 0.00 0.00 88 1013.4
20260906011432 83 288 0.9 0.9 0.00 0.00 0.00 88 1013.2
20260906010927 84 280 0.0 0.0 0.00 0.00 0.00 89 1013.3
20260906010422 84 272 0.0 0.0 0.00 0.00 0.00 89 1013.3
20260906005918 84 272 0.0 0.0 0.00 0.00 0.00 87 1013.2
20260906005418 84 272 0.0 0.0 0.00 0.00 0.00 86 1013.0
20260906004916 85 272 0.0 0.0 0.00 0.00 0.00 86 1012.8
20260906004411 85 272 0.0 0.0 0.00 0.00 0.00 84 1012.9
20260906003906 85 272 0.0 0.0 0.00 0.00 0.00 84 1012.9
20260906003402 86 272 0.0 0.0 0.00 0.00 0.00 83 1013.0
20260906002857 86 271 0.0 0.0 0.00 0.00 0.00 83 1013.0
20260906002356 86 232 0.0 0.0 0.00 0.00 0.00 82 1012.9
20260906001852 87 274 0.0 0.0 0.00 0.00 0.00 82 1013.0
20260906001348 87 264 0.0 0.0 0.00 0.00 0.00 81 1013.3
20260906000842 88 293 0.0 0.0 0.00 0.00 0.00 78 1013.1
20260906000337 88 289 0.0 0.9 0.00 0.00 0.00 77 1013.3
20260905235837 88 318 0.9 0.9 0.00 0.00 0.00 77 1013.4
20260905235331 88 339 0.9 1.7 0.00 0.00 0.00 76 1012.9
20260905234827 89 305 0.9 0.9 0.00 0.00 0.00 76 1013.0
20260905234322 89 286 0.9 0.9 0.00 0.00 0.00 76 1013.0
20260905233817 89 341 0.9 0.9 0.00 0.00 0.00 76 1012.9
20260905233312 89 38 0.0 0.9 0.00 0.00 0.00 75 1013.0
20260905232811 88 272 0.9 0.9 0.00 0.00 0.00 75 1013.0
20260905232307 88 309 0.9 0.9 0.00 0.00 0.00 74 1012.7
20260905231803 88 277 0.9 0.9 0.00 0.00 0.00 74 1012.5
20260905231258 89 290 0.9 0.9 0.00 0.00 0.00 75 1012.6
20260905230754 89 263 0.0 0.0 0.00 0.00 0.00 72 1012.5
20260905230252 90 253 0.0 0.0 0.00 0.00 0.00 72 1012.5
20260905225751 90 301 0.9 0.9 0.00 0.00 0.00 70 1012.5
20260905225247 91 3 0.9 0.9 0.00 0.00 0.00 70 1012.7
20260905224746 91 65 1.7 2.6 0.00 0.00 0.00 68 1012.5
20260905224242 91 128 1.7 1.7 0.00 0.00 0.00 68 1012.5
20260905223737 92 354 1.7 1.7 0.00 0.00 0.00 67 1012.4
20260905223234 92 332 1.7 1.7 0.00 0.00 0.00 66 1012.5
20260905222730 93 353 1.7 1.7 0.00 0.00 0.00 64 1012.3
20260905222228 93 353 2.6 2.6 0.00 0.00 0.00 62 1012.3
20260905221725 93 294 2.6 2.6 0.00 0.00 0.00 63 1012.4
20260905221221 93 338 1.7 1.7 0.00 0.00 0.00 64 1012.5
20260905220717 94 144 0.9 0.9 0.00 0.00 0.00 63 1012.4
20260905220213 94 285 1.7 1.7 0.00 0.00 0.00 64 1012.4
20260905215712 94 298 1.7 1.7 0.00 0.00 0.00 62 1012.6
20260905215208 93 61 2.6 2.6 0.00 0.00 0.00 64 1012.5
20260905214704 94 19 1.7 1.7 0.00 0.00 0.00 64 1012.7
20260905214159 93 344 2.6 4.3 0.00 0.00 0.00 65 1012.8
20260905213654 93 46 0.9 1.7 0.00 0.00 0.00 65 1012.8
20260905213150 93 294 1.7 1.7 0.00 0.00 0.00 64 1012.6
20260905212645 95 266 0.9 1.7 0.00 0.00 0.00 63 1012.4
20260905212144 95 37 0.9 0.9 0.00 0.00 0.00 61 1012.6
20260905211639 97 20 1.7 2.6 0.00 0.00 0.00 56 1012.6
20260905211134 96 327 0.9 1.7 0.00 0.00 0.00 56 1012.6
20260905210631 96 299 0.9 0.9 0.00 0.00 0.00 57 1012.6
20260905210126 97 252 1.7 2.6 0.00 0.00 0.00 55 1012.9
20260905205624 96 290 2.6 2.6 0.00 0.00 0.00 55 1012.7
20260905205119 96 331 2.6 2.6 0.00 0.00 0.00 57 1012.9
20260905204618 96 278 1.7 1.7 0.00 0.00 0.00 56 1012.7
20260905204114 95 311 0.0 0.9 0.00 0.00 0.00 56 1012.9
20260905203614 96 8 3.5 4.3 0.00 0.00 0.00 56 1012.9
20260905203109 95 226 1.7 1.7 0.00 0.00 0.00 56 1012.9
20260905202604 95 318 3.5 5.2 0.00 0.00 0.00 56 1013.1
20260905202059 95 14 3.5 4.3 0.00 0.00 0.00 58 1013.4
20260905201555 95 276 3.5 5.2 0.00 0.00 0.00 58 1013.2
20260905201054 95 267 1.7 2.6 0.00 0.00 0.00 57 1013.4
20260905200550 96 321 5.2 6.1 0.00 0.00 0.00 56 1013.3
20260905200044 95 305 2.6 2.6 0.00 0.00 0.00 57 1013.3
20260905195544 96 298 0.9 0.9 0.00 0.00 0.00 57 1013.3
20260905195040 96 300 2.6 2.6 0.00 0.00 0.00 59 1013.4
20260905194539 96 25 0.9 1.7 0.00 0.00 0.00 57 1013.5
20260905194038 96 308 0.0 0.9 0.00 0.00 0.00 57 1013.3
20260905193534 96 60 5.2 7.0 0.00 0.00 0.00 58 1013.5
20260905193029 95 125 0.9 0.9 0.00 0.00 0.00 61 1013.6
20260905192524 95 321 2.6 2.6 0.00 0.00 0.00 56 1013.6
20260905192020 96 19 2.6 2.6 0.00 0.00 0.00 57 1013.5
20260905191519 94 271 1.7 2.6 0.00 0.00 0.00 60 1013.6
20260905191018 94 320 1.7 2.6 0.00 0.00 0.00 59 1013.7
20260905190516 94 266 0.9 0.9 0.00 0.00 0.00 61 1013.7
20260905190016 94 355 1.7 1.7 0.00 0.00 0.00 63 1013.6
20260905185510 95 352 1.7 2.6 0.00 0.00 0.00 59 1013.8
20260905185009 95 20 5.2 6.1 0.00 0.00 0.00 58 1013.6
20260905184504 95 334 2.6 4.3 0.00 0.00 0.00 58 1013.9
20260905184003 95 0 4.3 5.2 0.00 0.00 0.00 57 1013.8
20260905183503 95 283 0.0 0.9 0.00 0.00 0.00 57 1013.9
20260905182957 95 13 2.6 2.6 0.00 0.00 0.00 57 1013.9
20260905182457 95 33 1.7 2.6 0.00 0.00 0.00 59 1013.8
20260905181952 94 319 2.6 2.6 0.00 0.00 0.00 59 1013.9
20260905181447 95 239 0.0 0.9 0.00 0.00 0.00 60 1014.0
20260905180946 94 328 1.7 1.7 0.00 0.00 0.00 58 1014.1
20260905180441 94 35 1.7 1.7 0.00 0.00 0.00 58 1013.9
20260905175936 94 16 2.6 2.6 0.00 0.00 0.00 57 1013.9
20260905175435 95 15 1.7 1.7 0.00 0.00 0.00 57 1014.0
20260905174931 95 320 0.9 0.9 0.00 0.00 0.00 58 1014.0
20260905174426 95 169 0.0 0.9 0.00 0.00 0.00 59 1014.0
20260905173922 94 300 0.9 0.9 0.00 0.00 0.00 58 1014.0
20260905173418 95 112 3.5 4.3 0.00 0.00 0.00 58 1014.3
20260905172913 95 326 1.7 1.7 0.00 0.00 0.00 58 1014.1
20260905172410 96 6 0.0 0.9 0.00 0.00 0.00 57 1014.3
20260905171907 96 242 0.0 0.9 0.00 0.00 0.00 58 1014.5
20260905171403 95 266 0.9 0.9 0.00 0.00 0.00 60 1014.5
20260905170859 96 266 0.0 0.9 0.00 0.00 0.00 57 1014.5
20260905170355 93 228 0.9 0.9 0.00 0.00 0.00 63 1014.4
20260905165854 93 89 0.0 0.9 0.00 0.00 0.00 63 1014.5
20260905165350 94 11 3.5 4.3 0.00 0.00 0.00 60 1014.6
20260905164844 93 23 2.6 2.6 0.00 0.00 0.00 62 1014.5
20260905164339 93 356 5.2 7.0 0.00 0.00 0.00 62 1014.7
20260905163835 93 38 3.5 4.3 0.00 0.00 0.00 65 1014.6
20260905163331 94 353 2.6 2.6 0.00 0.00 0.00 65 1014.6
20260905162827 95 268 0.9 0.9 0.00 0.00 0.00 63 1014.4
20260905162326 95 266 1.7 1.7 0.00 0.00 0.00 59 1014.5
20260905161821 95 252 0.0 0.9 0.00 0.00 0.00 62 1014.7
20260905161320 94 226 0.0 0.9 0.00 0.00 0.00 62 1014.5
20260905160818 94 246 0.0 0.0 0.00 0.00 0.00 65 1014.4
20260905160313 94 285 0.9 0.9 0.00 0.00 0.00 63 1014.4
20260905155807 93 235 0.9 0.9 0.00 0.00 0.00 67 1014.0
20260905155301 94 241 1.7 1.7 0.00 0.00 0.00 64 1014.3
20260905154755 94 256 0.0 0.9 0.00 0.00 0.00 65 1014.2
20260905154251 93 259 0.0 0.9 0.00 0.00 0.00 66 1014.4
20260905153746 92 257 0.0 0.9 0.00 0.00 0.00 67 1014.2
20260905153242 92 233 0.0 0.0 0.00 0.00 0.00 67 1014.1
20260905152737 92 248 0.9 1.7 0.00 0.00 0.00 67 1014.4
20260905152236 91 253 0.9 0.9 0.00 0.00 0.00 69 1014.4
20260905151731 92 288 0.9 0.9 0.00 0.00 0.00 69 1014.2
20260905151227 90 241 0.0 0.9 0.00 0.00 0.00 69 1014.3
20260905150727 91 239 0.9 0.9 0.00 0.00 0.00 68 1014.2